Location: Fouquenies
(49.4624°N, 2.0492°E)
Time: 05:32:26
(UTC+00:00)

Lacrosse 5 rocket - Pass Details

Date: 03 February 2023
Orbit: 455 x 612 km, 57.0° (Epoch: 30 March)

Event Time Altitude Azimuth Distance (km) Brightness Sun altitude
Rises 19:25:03 0° 300° (WNW) 2,490 5.7 -25.3°
Reaches altitude 10° 19:27:15 10° 292° (WNW) 1,624 4.6 -25.6°
Enters shadow 19:30:06 34° 244° (WSW) 795 2.5 -26.1°
